"Pseudo-MPEC" for P21DeCg

Created 2023 Feb 1 16:22:12 UT using Find_Orb

Click here for an explanation of pseudo-MPECs

 
 Astrometry: 
     P21DeCg* C2023 01 24_,Ai0ym/PrOGq=cSAhH[0h4!wpn8%+QeAuY4^0-3WX+t2=4a'h);F52
     P21DeCg  C2023 01 24i'1]sjCKUAstrometry#F*]4iGuVXTaR@hIT)PB3EenW#A!F1#l;F52
     P21DeCg  C2023 01 24`'^aVo?00LPRu^\ZIKF=\#8^redacted;#_oQdA2#(CrS\N*5#hqF52
     P21DeCg  C2023 01 24)#@UI77OO)hxct=*,@gOli]NclickqA=tc4Xf.3iy$ohere)Txq,F52
     P21DeCg  C2023 01 24kIRig[50'_[V#J4iX!YX%Na3'2@C$iCV3e7O0@1IgLLU^VOp[WWIF52
     P21DeCg  C2023 01 248Di[H2YXExIHMYB^]xK/$%cfor6.YLfku$5:7PMexplanationoPF52
     P21DeCg 1C2023 01 29.22616307 46 44.389+52 08 34.87   ~1T67 21.41GVNEOCPG96
     P21DeCg 1C2023 01 29.23142307 46 43.756+52 08 34.66   ~1T67 21.93GVNEOCPG96
     P21DeCg 1C2023 01 29.23666107 46 43.144+52 08 35.38   ~1T67 21.50GVNEOCPG96
     P21DeCg 1C2023 01 29.24190307 46 42.532+52 08 35.63   ~1T67 21.90GVNEOCPG96

Station data:
(F52) Pan-STARRS 2, Haleakala  (N20.707382 W156.255910)  US/Hawaii.
   Observers J. Bulger, T. Dukes, T. Lowe, A. Schultz, M. Willman. Measurers
   K. Chambers, S. Chastel, T. de Boer, L. Denneau, J. Fairlamb, H.
   Flewelling, M. Huber, C.-C. Lin, E. Magnier, Y. Ramanjooloo, R. Wainscoat,
   R. Weryk. 1.8-m Ritchey-Chrétien + CCD.
(G96) Mt. Lemmon Survey  (N32.442751 W110.788720)  US/Arizona.  Observers T.
   A. Pruyne, B. M. Africano, E. J. Christensen, G. A. Farneth, D. C. Fuls,
   A. R. Gibbs, A. D. Grauer, H. Gröller, J. A. Johnson, R. A. Kowalski, S.
   M. Larson, G. J. Leonard, D. Rankin, R. L. Seaman, F. C. Shelly, K. W.
   Wierzchoś. 1.5-m reflector + 10K CCD.

Orbital elements:  P21DeCg
   Perihelion 2023 Jun 11.57971 +/- 226 TT = 13:54:47 (JD 2460107.07971)
Epoch 2023 Jan 29.0 TT = JDT 2459973.5   Earth MOID: 0.4191      AutoNEOCP
M 300.74963676 +/- 100              (J2000 ecliptic)
n   0.44355809 +/- 0.0473           Peri.  161.21291 +/- 53
a   1.70282117 +/- 0.121            Node    37.34424 +/- 15
e   0.1670363 +/- 0.0919            Incl.   12.71881 +/- 2.6
P   2.22/811.60d           H 20.68  G  0.15   U 10.8  SR
q 1.41838810 +/- 0.0941    Q 1.98725424 +/- 0.35
From 10 observations 2023 Jan. 24-29; mean residual 0".44
Residuals in arcseconds: 
230124 F52  .51-  .04-    230124 F52  1.2+  .00     230129 G96  .04-  .04+    
230124 F52  .78-  .08+    230124 F52  1.0+  .04+    230129 G96  .03+  .10-    
230124 F52  .58-  .09+    230129 G96  .01+  .34+    
230124 F52  .22-  .17-    230129 G96  .10-  .28-    

Ephemerides (geocentric):
Date (UTC) HH   RA             Dec           delta  r     elong  mag " sig PA
---- --------  ------------   ------------  ------ ------ -----  --- --------
2023 02 01 16  07 40 35.438   +52 07 47.62  .69329 1.5889 141.8 22.0 88.7 146
2023 02 01 17  07 40 31.160   +52 07 44.01  .69333 1.5888 141.7 22.0 90.2 146
2023 02 01 18  07 40 26.887   +52 07 40.33  .69338 1.5887 141.7 22.0 91.7 146
2023 02 01 19  07 40 22.618   +52 07 36.57  .69342 1.5887 141.7 22.0 93.2 146
2023 02 01 20  07 40 18.355   +52 07 32.75  .69347 1.5886 141.6 22.0 94.7 146
2023 02 01 21  07 40 14.096   +52 07 28.84  .69351 1.5885 141.6 22.0 96.2 146
2023 02 01 22  07 40 09.843   +52 07 24.87  .69356 1.5884 141.6 22.0 97.7 146
2023 02 01 23  07 40 05.594   +52 07 20.83  .69360 1.5883 141.6 22.0 99.3 145
2023 02 02 00  07 40 01.351   +52 07 16.71  .69365 1.5882 141.5 22.0  101 145
2023 02 02 01  07 39 57.112   +52 07 12.52  .69370 1.5881 141.5 22.0  102 145
2023 02 02 02  07 39 52.879   +52 07 08.26  .69374 1.5880 141.5 22.0  104 145
2023 02 02 03  07 39 48.651   +52 07 03.93  .69379 1.5879 141.4 22.0  106 145
2023 02 02 04  07 39 44.428   +52 06 59.52  .69384 1.5878 141.4 22.0  107 145
2023 02 02 05  07 39 40.210   +52 06 55.04  .69389 1.5878 141.4 22.0  109 145
2023 02 02 06  07 39 35.997   +52 06 50.50  .69393 1.5877 141.4 22.0  110 145
2023 02 02 07  07 39 31.790   +52 06 45.87  .69398 1.5876 141.3 22.0  112 145
2023 02 02 08  07 39 27.587   +52 06 41.18  .69403 1.5875 141.3 22.0  114 145
2023 02 02 09  07 39 23.390   +52 06 36.42  .69408 1.5874 141.3 22.0  115 145
2023 02 02 10  07 39 19.198   +52 06 31.58  .69413 1.5873 141.2 22.0  117 145
2023 02 02 11  07 39 15.011   +52 06 26.68  .69418 1.5872 141.2 22.0  119 145
2023 02 02 12  07 39 10.830   +52 06 21.70  .69423 1.5871 141.2 22.0  120 144
2023 02 02 13  07 39 06.654   +52 06 16.65  .69428 1.5870 141.1 22.0  122 144
2023 02 02 14  07 39 02.483   +52 06 11.53  .69433 1.5869 141.1 22.0  124 144
2023 02 02 15  07 38 58.317   +52 06 06.34  .69438 1.5869 141.1 22.0  125 144
2023 02 02 16  07 38 54.157   +52 06 01.08  .69443 1.5868 141.1 22.0  127 144
2023 02 02 17  07 38 50.002   +52 05 55.74  .69448 1.5867 141.0 22.0  129 144
2023 02 02 18  07 38 45.852   +52 05 50.34  .69453 1.5866 141.0 22.0  130 144
2023 02 02 19  07 38 41.708   +52 05 44.86  .69458 1.5865 141.0 22.0  132 144
2023 02 02 20  07 38 37.569   +52 05 39.32  .69463 1.5864 140.9 22.0  134 144
2023 02 02 21  07 38 33.436   +52 05 33.70  .69468 1.5863 140.9 22.0  136 144
2023 02 02 22  07 38 29.308   +52 05 28.01  .69473 1.5862 140.9 22.0  137 144
2023 02 02 23  07 38 25.185   +52 05 22.25  .69479 1.5861 140.8 22.0  139 144
2023 02 03 00  07 38 21.068   +52 05 16.42  .69484 1.5860 140.8 22.0  141 143
2023 02 03 01  07 38 16.956   +52 05 10.52  .69489 1.5860 140.8 22.0  143 143
2023 02 03 02  07 38 12.850   +52 05 04.55  .69494 1.5859 140.8 22.0  145 143
2023 02 03 03  07 38 08.749   +52 04 58.51  .69500 1.5858 140.7 22.0  146 143
2023 02 03 04  07 38 04.654   +52 04 52.40  .69505 1.5857 140.7 22.0  148 143
2023 02 03 05  07 38 00.564   +52 04 46.22  .69510 1.5856 140.7 22.0  150 143
2023 02 03 06  07 37 56.480   +52 04 39.97  .69516 1.5855 140.6 22.0  152 143
2023 02 03 07  07 37 52.402   +52 04 33.64  .69521 1.5854 140.6 22.0  154 143
2023 02 03 08  07 37 48.329   +52 04 27.25  .69526 1.5853 140.6 22.0  156 143
2023 02 03 09  07 37 44.261   +52 04 20.79  .69532 1.5852 140.5 22.0  157 143
2023 02 03 10  07 37 40.199   +52 04 14.26  .69537 1.5852 140.5 22.0  159 143
2023 02 03 11  07 37 36.143   +52 04 07.66  .69543 1.5851 140.5 22.0  161 143
2023 02 03 12  07 37 32.093   +52 04 00.99  .69548 1.5850 140.4 22.0  163 142
2023 02 03 13  07 37 28.048   +52 03 54.24  .69554 1.5849 140.4 22.0  165 142
2023 02 03 14  07 37 24.008   +52 03 47.43  .69559 1.5848 140.4 22.0  167 142
2023 02 03 15  07 37 19.975   +52 03 40.55  .69565 1.5847 140.4 22.0  169 142